Voltar ao catálogo

BREEZE-M DEB

TANK

AtivoHEO
NORAD 37750·DEBRIS·🇷🇺 Russia

Lançado Jul 15, 2011 de Baikonur Cosmodrome

Loading…

Próximas Passagens (próximas 24 horas)

TLE

AtualizadoSource: Space-Track

Época: Sep 12, 2026, 14:22 UTC

1 37750U 11035C   26255.59917191 -.00000143  00000-0  44749-4 0  9995
2 37750  45.4487  14.4435 6344404   2.7180 359.4371  3.31074152183066

Acompanhe BREEZE-M DEB em tempo real com AllMySat

Download on the App Store